Wind_Speed
30 24 22 22 23 23 25 24 21 20 20 21 22 18 18 18 16 15 15 14 13 13 13 14 15 15 16 17 18 19 20 21 21 21 21 21 20 18 18 17 16 17 17 18
32 29 25 23 23 23 23 24 24 22 21 21 21 22 21 20 18 17 16 15 15 14 14 15 15 16 17 18 19 20 21 22 22 22 22 22 22 20 18 18 18 18 19 19
33 29 28 27 24 24 25 24 24 24 23 23 22 23 23 21 20 19 18 17 16 16 16 16 17 17 18 19 20 21 23 24 24 23 23 23 22 21 20 19 19 19 20 20
33 30 29 28 26 25 25 25 25 24 24 24 25 26 25 23 21 20 19 19 18 17 18 18 18 18 19 20 22 23 24 25 25 25 24 24 22 21 21 21 20 20 20 21
32 30 29 27 26 27 27 27 26 26 27 27 26 26 27 25 23 22 21 20 20 19 19 19 19 20 21 22 23 24 25 25 26 25 25 24 24 22 22 22 21 21 21 21
33 30 28 27 26 25 27 28 28 28 29 29 28 28 28 26 24 23 22 22 21 21 21 21 21 22 22 23 24 25 26 26 26 26 25 25 24 23 23 23 23 23 23 23
35 31 28 27 26 26 28 29 28 28 29 29 30 30 30 27 25 24 22 23 23 23 23 23 24 24 24 25 26 26 26 27 27 27 26 25 25 25 25 25 24 25 25 24
35 32 30 30 28 30 31 31 30 30 29 30 30 30 29 28 27 26 25 24 25 25 25 25 26 26 26 26 26 26 27 28 28 28 28 27 27 27 27 26 26 26 25 25
36 36 35 34 33 33 33 32 31 30 30 30 30 31 30 29 29 28 28 27 27 26 27 27 28 28 27 27 28 28 29 30 30 29 29 29 29 28 27 27 27 27 26 26
37 38 38 37 36 35 34 34 33 31 30 31 31 31 30 30 30 29 29 28 28 28 28 28 29 29 29 29 30 29 30 30 31 31 31 30 29 29 28 28 28 28 28 27
40 40 40 39 38 37 36 35 34 32 32 32 32 31 32 32 32 32 31 30 30 30 30 30 30 31 31 30 30 30 31 32 32 32 32 31 30 30 29 30 30 30 29 29
40 42 42 42 41 39 37 35 34 33 33 33 33 33 33 33 33 33 33 34 34 34 33 33 33 33 31 32 32 33 33 33 33 33 32 32 32 31 30 30 30 30 30 30
41 42 41 41 41 39 37 36 35 35 34 34 34 34 34 34 34 35 35 35 35 35 35 35 35 35 34 34 35 35 35 34 34 33 33 33 33 32 32 32 31 31 31 31
39 41 41 40 38 38 37 37 37 37 36 36 36 36 35 35 35 35 36 36 36 36 36 35 35 35 35 35 35 36 35 35 35 34 34 34 33 33 33 33 32 31 32 32
40 39 40 40 39 39 38 38 38 38 38 38 37 37 36 36 36 36 35 35 36 36 35 35 35 35 35 35 35 35 35 35 35 34 34 34 33 33 33 33 32 33 33 32
40 40 40 39 39 38 37 38 38 39 39 39 38 38 37 37 37 36 35 36 36 35 35 35 35 35 36 36 35 35 35 35 35 35 34 34 34 34 34 34 34 33 32 33
39 40 40 40 39 39 38 37 38 39 39 39 38 38 37 37 37 36 36 36 36 36 36 36 36 37 37 37 37 36 36 35 35 35 34 34 33 33 34 34 34 34 34 34
39 39 39 39 38 38 37 37 37 38 38 38 38 37 37 36 36 36 36 36 36 37 37 37 37 36 37 37 37 36 36 36 36 35 34 33 32 32 33 34 34 34 34 34
39 39 39 39 39 38 37 36 37 37 36 36 36 36 36 36 36 36 35 36 37 37 37 37 37 37 37 37 36 36 36 35 35 34 33 33 33 33 33 34 34 34 34 33
38 39 38 38 38 38 37 35 35 35 35 35 35 35 35 35 35 35 35 36 36 35 35 36 36 36 36 35 35 34 34 34 33 33 33 33 33 33 33 34 34 34 33 33
34 35 36 35 35 35 35 35 34 33 33 33 33 33 33 33 33 34 34 34 34 34 34 33 34 34 34 34 33 33 33 33 33 33 33 33 33 33 33 33 33 33 33 32
31 33 34 34 34 34 33 32 33 33 32 32 32 32 32 32 33 33 33 34 33 33 33 33 33 33 34 34 34 33 33 33 33 33 33 33 33 33 33 33 33 32 32 32
29 31 33 33 33 33 32 32 32 32 33 33 33 33 33 33 33 33 33 33 33 33 34 34 34 34 34 33 33 33 32 32 33 33 33 33 33 32 32 31 31 31 31 31
28 28 30 30 31 32 32 31 31 32 33 33 32 32 33 33 33 33 33 33 33 34 34 33 33 33 33 33 33 33 32 32 32 33 33 33 33 32 31 31 31 31 31 31
27 28 29 29 29 30 30 30 30 31 31 31 32 33 33 32 32 33 33 33 33 33 33 32 32 32 32 32 32 32 31 31 31 31 31 31 30 30 30 30 30 30 30 30
23 24 26 27 28 28 29 29 29 30 30 31 31 31 31 31 31 31 32 32 32 32 31 31 31 30 29 28 29 29 29 29 29 30 29 29 28 28 28 28 28 28 29 29
22 23 24 25 26 27 27 27 28 29 30 30 30 30 30 30 30 30 30 29 29 28 28 28 27 26 27 27 28 28 28 28 28 28 27 26 27 26 26 27 28 28 29 29
Wind_Direction
208 210 222 231 230 226 224 220 228 239 250 260 264 265 271 276 280 282 287 293 297 303 311 318 323 327 331 335 338 339 339 339 340 339 339 337 336 333 329 327 327 328 329 329
213 208 216 224 228 227 228 226 227 232 241 250 254 256 264 272 275 278 283 288 290 296 302 308 313 317 323 327 331 333 334 336 336 336 334 335 334 332 329 324 324 325 326 326
216 213 217 223 225 228 229 229 231 234 240 250 252 256 263 267 270 274 278 283 285 289 295 301 306 310 315 319 324 327 328 331 332 332 332 332 330 329 328 326 324 323 323 324
219 216 223 225 225 228 229 228 230 234 238 243 254 257 260 264 268 271 274 278 283 287 290 295 299 304 308 313 318 321 323 326 328 328 328 327 326 325 325 323 322 321 321 321
219 221 226 226 227 226 230 231 228 232 236 239 246 254 258 261 264 266 271 276 281 284 286 289 293 298 303 307 311 315 318 322 324 324 323 324 323 323 323 322 321 319 319 318
219 219 223 227 228 224 228 233 231 231 236 238 241 248 254 257 262 265 268 272 277 282 284 286 289 292 297 301 305 309 313 316 319 319 319 320 320 320 319 318 318 318 316 315
219 220 223 227 228 226 229 233 234 234 236 240 242 247 254 258 260 262 266 270 275 278 281 284 286 288 292 296 299 303 307 310 313 316 317 317 316 315 315 315 315 314 314 313
219 219 224 227 228 228 232 235 235 237 240 244 247 250 253 256 259 263 267 270 273 276 279 281 284 286 287 291 295 297 301 306 309 311 313 312 313 313 312 312 312 312 312 312
222 221 224 227 229 231 233 236 238 241 243 245 248 250 253 256 259 262 265 269 272 274 278 279 281 284 286 289 292 295 298 302 305 308 309 308 309 311 311 310 309 309 309 309
223 224 226 229 231 233 234 237 240 243 246 248 249 251 253 256 259 261 265 268 271 273 275 278 281 282 284 286 289 292 296 299 303 304 305 306 306 307 307 308 307 307 307 307
223 225 228 231 233 235 237 239 243 245 246 248 250 251 254 256 259 262 265 268 270 272 274 276 279 281 282 284 289 292 294 297 299 301 303 304 304 304 304 305 305 305 305 305
225 227 229 231 233 236 239 241 244 246 247 249 251 253 256 259 261 263 266 268 270 272 273 275 278 280 282 285 288 290 292 296 297 298 300 302 302 302 303 303 303 303 303 303
227 229 230 232 234 237 240 242 244 246 248 250 253 255 258 260 263 265 267 268 271 272 273 275 277 279 281 283 285 287 290 293 296 297 298 299 299 299 300 301 301 301 302 302
231 232 233 235 237 239 241 242 244 247 250 253 255 257 259 261 263 266 267 269 270 271 273 273 275 278 280 282 283 285 288 290 293 295 297 297 297 297 298 299 299 299 300 302
233 235 235 238 240 241 242 244 246 249 251 253 256 257 259 261 263 265 267 269 270 271 273 274 275 277 280 281 282 284 286 289 292 294 295 295 295 296 296 296 296 298 299 300
234 237 239 240 240 242 242 245 247 249 251 253 255 258 260 261 263 265 267 268 270 271 272 274 276 277 278 280 282 285 286 288 291 292 293 293 293 294 295 294 295 297 298 299
235 237 240 241 243 243 244 245 247 249 251 253 255 257 259 261 263 264 266 267 269 270 272 273 274 276 278 279 282 283 285 287 288 290 291 292 293 293 294 294 296 297 298 298
237 238 240 241 242 244 245 246 249 250 251 253 254 256 258 261 262 263 265 267 269 270 272 272 274 277 279 280 282 283 284 285 286 287 289 290 291 293 294 295 295 296 298 298
238 239 241 242 243 244 246 247 248 250 252 253 255 257 259 260 262 263 265 267 269 271 272 274 275 277 279 280 281 282 282 283 284 286 288 289 290 292 293 294 295 296 297 297
238 239 241 242 243 245 246 246 247 249 251 254 256 257 259 260 262 264 266 268 269 271 273 275 275 276 277 278 279 280 280 281 284 285 287 287 289 290 292 293 294 295 296 296
238 238 240 241 242 242 244 246 248 249 249 252 255 257 259 260 262 265 266 268 270 271 273 274 274 275 276 276 277 279 280 282 283 284 285 286 287 289 291 291 293 294 295 295
236 237 237 239 240 240 242 245 248 249 250 252 254 256 257 260 262 264 266 268 269 270 272 274 275 276 277 277 278 279 280 281 282 284 285 286 287 288 289 290 292 293 294 295
236 236 236 237 238 239 241 244 247 248 250 251 253 255 258 260 262 264 266 268 270 270 272 274 276 277 277 277 277 278 279 280 281 283 284 286 287 288 289 290 291 292 293 294
238 239 238 239 239 240 242 244 247 249 251 252 253 256 258 260 262 265 267 268 270 271 273 275 276 277 277 277 277 278 279 280 281 282 283 284 285 288 290 290 292 293 294 295
239 238 238 238 239 241 243 245 248 249 250 253 255 257 259 261 264 266 268 270 271 272 274 275 276 277 276 276 276 277 279 279 281 283 285 286 288 290 291 292 293 294 295 297
237 238 239 239 241 244 245 246 248 250 252 254 256 258 260 262 264 267 269 270 271 272 273 274 275 276 276 276 276 278 279 280 282 284 285 286 288 290 291 292 293 295 297 298
239 240 241 240 242 244 246 247 249 251 253 255 256 258 260 262 264 266 268 269 271 272 273 273 273 274 276 277 278 278 278 280 281 283 284 286 289 291 293 294 294 296 297 298
Height
5902 5907 5912 5914 5917 5920 5924 5928 5932 5933 5933 5932 5931 5930 5930 5930 5931 5931 5931 5930 5930 5929 5929 5927 5926 5924 5923 5921 5919 5917 5914 5911 5908 5905 5903 5900 5897 5894 5892 5890 5888 5886 5884 5882
5895 5900 5905 5909 5912 5916 5919 5922 5925 5927 5928 5926 5925 5926 5927 5927 5927 5928 5928 5928 5928 5927 5927 5926 5924 5923 5921 5919 5917 5915 5913 5910 5907 5904 5900 5897 5894 5891 5889 5888 5886 5884 5881 5879
5889 5895 5898 5902 5907 5911 5914 5917 5920 5921 5922 5920 5920 5921 5922 5923 5924 5925 5924 5924 5924 5924 5924 5923 5922 5921 5919 5917 5915 5913 5910 5908 5905 5902 5898 5895 5892 5889 5887 5885 5883 5881 5878 5876
5883 5889 5892 5898 5902 5905 5907 5910 5913 5915 5916 5915 5915 5916 5918 5919 5920 5920 5921 5921 5921 5921 5920 5920 5919 5918 5916 5914 5912 5910 5907 5905 5902 5899 5896 5893 5890 5887 5884 5882 5880 5877 5875 5873
5877 5881 5886 5891 5894 5898 5901 5903 5906 5909 5910 5910 5911 5912 5913 5914 5915 5916 5916 5917 5917 5917 5916 5916 5915 5914 5912 5911 5909 5907 5904 5901 5898 5895 5893 5890 5887 5884 5881 5879 5877 5874 5872 5869
5870 5875 5880 5885 5887 5891 5895 5896 5899 5901 5903 5904 5906 5907 5907 5908 5910 5911 5911 5911 5912 5912 5912 5911 5911 5910 5908 5907 5905 5903 5900 5898 5895 5892 5889 5886 5883 5881 5878 5876 5873 5871 5868 5865
5863 5869 5874 5877 5880 5884 5888 5889 5892 5894 5896 5898 5900 5901 5902 5902 5903 5905 5904 5906 5907 5907 5907 5906 5906 5905 5903 5902 5900 5898 5896 5893 5891 5888 5885 5882 5880 5877 5874 5872 5869 5866 5864 5861
5856 5863 5868 5869 5873 5876 5878 5881 5883 5886 5889 5891 5893 5895 5896 5896 5897 5899 5900 5901 5901 5901 5901 5901 5900 5899 5898 5896 5894 5893 5891 5889 5886 5883 5881 5878 5875 5872 5869 5867 5864 5861 5859 5856
5849 5855 5857 5860 5864 5867 5871 5873 5876 5879 5882 5884 5886 5888 5889 5890 5891 5893 5894 5895 5895 5895 5895 5894 5894 5893 5892 5891 5889 5887 5885 5883 5880 5878 5875 5873 5870 5867 5864 5861 5859 5856 5853 5850
5841 5845 5849 5852 5856 5860 5863 5866 5869 5872 5875 5877 5879 5881 5882 5884 5885 5886 5887 5888 5888 5888 5888 5888 5887 5886 5885 5884 5882 5881 5879 5876 5874 5871 5869 5866 5864 5861 5858 5855 5853 5850 5847 5844
5832 5836 5840 5843 5847 5852 5855 5859 5862 5865 5867 5869 5871 5873 5875 5876 5878 5879 5880 5880 5880 5880 5880 5880 5879 5878 5877 5876 5875 5873 5871 5869 5867 5865 5862 5860 5857 5854 5851 5849 5846 5844 5841 5838
5823 5827 5831 5835 5838 5843 5847 5851 5854 5857 5859 5861 5863 5865 5867 5868 5870 5871 5871 5872 5872 5872 5872 5872 5871 5870 5869 5868 5867 5865 5864 5862 5859 5857 5855 5852 5850 5847 5844 5842 5839 5836 5834 5831
5813 5817 5822 5825 5830 5835 5839 5843 5846 5848 5851 5853 5855 5857 5859 5860 5861 5862 5863 5863 5863 5863 5863 5863 5862 5862 5861 5860 5858 5857 5855 5853 5851 5849 5847 5844 5842 5839 5837 5835 5832 5829 5826 5824
5803 5808 5813 5818 5822 5827 5830 5834 5837 5840 5843 5845 5847 5848 5850 5851 5852 5853 5854 5854 5854 5854 5854 5854 5853 5852 5851 5851 5850 5848 5846 5845 5843 5841 5838 5836 5833 5831 5829 5826 5824 5821 5819 5816
5796 5799 5805 5809 5814 5818 5822 5825 5829 5831 5834 5836 5838 5839 5841 5842 5843 5844 5844 5845 5845 5844 5844 5844 5844 5843 5842 5842 5840 5839 5838 5836 5834 5832 5830 5827 5825 5823 5820 5818 5816 5813 5811 5808
5789 5792 5797 5801 5806 5809 5812 5816 5819 5822 5824 5826 5828 5830 5831 5833 5834 5834 5835 5835 5835 5835 5835 5835 5835 5834 5834 5833 5831 5830 5829 5827 5825 5823 5821 5819 5816 5814 5812 5809 5807 5805 5802 5800
5781 5785 5789 5793 5797 5800 5803 5806 5809 5811 5814 5816 5818 5820 5822 5823 5824 5825 5825 5826 5826 5826 5826 5825 5825 5825 5824 5823 5822 5821 5820 5818 5816 5814 5812 5810 5808 5805 5803 5801 5799 5796 5794 5791
5772 5776 5780 5784 5788 5791 5794 5796 5799 5801 5804 5806 5808 5810 5812 5813 5814 5815 5816 5816 5816 5816 5816 5816 5815 5815 5814 5813 5812 5811 5810 5809 5807 5805 5803 5801 5799 5797 5795 5792 5790 5788 5785 5782
5764 5768 5771 5775 5779 5782 5785 5787 5790 5792 5795 5797 5799 5801 5803 5804 5805 5806 5806 5806 5806 5806 5806 5806 5805 5805 5804 5804 5803 5801 5800 5799 5798 5796 5794 5792 5790 5788 5786 5783 5781 5778 5776 5773
5755 5759 5763 5767 5771 5774 5777 5779 5781 5784 5786 5788 5790 5791 5793 5794 5795 5796 5797 5797 5797 5797 5796 5796 5795 5795 5794 5794 5793 5792 5790 5789 5788 5786 5785 5783 5781 5779 5776 5774 5772 5769 5767 5764
5747 5751 5754 5758 5762 5765 5768 5771 5773 5775 5777 5779 5781 5783 5784 5785 5786 5787 5787 5787 5787 5787 5787 5786 5786 5785 5785 5784 5783 5782 5781 5780 5779 5777 5775 5774 5772 5770 5767 5765 5763 5760 5758 5755
5740 5743 5747 5750 5753 5757 5760 5762 5765 5767 5769 5771 5772 5774 5775 5776 5777 5777 5778 5778 5778 5778 5778 5777 5777 5776 5775 5774 5773 5773 5772 5770 5769 5768 5766 5764 5762 5760 5758 5756 5754 5751 5749 5747
5733 5735 5739 5742 5745 5748 5751 5754 5756 5758 5760 5762 5764 5765 5766 5767 5768 5768 5769 5769 5769 5769 5768 5768 5767 5766 5766 5765 5764 5763 5762 5761 5760 5758 5757 5755 5753 5751 5749 5747 5745 5742 5740 5738
5726 5728 5731 5734 5737 5740 5743 5746 5748 5750 5751 5753 5755 5756 5757 5758 5759 5759 5759 5759 5759 5759 5759 5758 5758 5757 5756 5755 5754 5754 5752 5751 5750 5749 5747 5745 5744 5742 5740 5738 5736 5733 5731 5729
5720 5722 5725 5727 5730 5733 5735 5737 5740 5741 5742 5744 5746 5747 5748 5749 5750 5750 5750 5750 5750 5749 5749 5749 5748 5747 5746 5746 5745 5744 5743 5742 5741 5740 5738 5736 5735 5733 5731 5729 5727 5725 5723 5720
5713 5715 5718 5720 5723 5725 5727 5729 5731 5733 5734 5735 5737 5738 5739 5740 5741 5741 5741 5741 5741 5740 5740 5740 5739 5738 5737 5737 5736 5735 5734 5733 5732 5731 5730 5728 5726 5724 5723 5721 5719 5717 5714 5712
5708 5710 5712 5714 5716 5718 5720 5722 5723 5724 5726 5727 5728 5730 5731 5731 5732 5732 5732 5732 5732 5732 5732 5731 5730 5730 5729 5728 5728 5727 5726 5725 5724 5723 5721 5720 5718 5717 5715 5712 5711 5709 5706 5703